Home > Weather > Vennesla > Past weeks

Flag for Norway Past Weather in Vennesla, Norway — Yesterday and Last 2 Weeks

Now
55 °F

Light rain. Partly sunny.


Feels Like: 51 °F
Forecast: 51 / 58 °F
Wind: 16 mph from Southeast

Location: Kristiansand / Kjevik

Current Time: Jun 30, 2016 at 7:10:10 AM

Latest Report: Jun 30, 2016 at 6:20 AM


Visibility: 3 mi

Pressure: 29.59 "Hg

Humidity: 94%

Dew Point: 54 °F

Location of VenneslaLocation

Past Weather in Vennesla — Graph

°F

Vennesla Temperature Yesterday

Maximum temperature yesterday: 61 °F (at 10:20 AM)
Minimum temperature yesterday: 48 °F (at 1:50 AM)
Average temperature yesterday: 56 °F

High & Low Weather Summary for the Past Weeks

 TemperatureHumidityPressure
High72 °F (Jun 17, 4:50 PM)100% (Jun 16, 7:20 AM)30.18 "Hg (Jun 16, 7:20 AM)
Low48 °F (Jun 29, 1:50 AM)35% (Jun 19, 11:50 AM)29.53 "Hg (Jun 15, 5:20 AM)
Average60 °F82%29.83 "Hg
* Reported Jun 15 5:20 AM — Jun 30 5:20 AM, Vennesla, Weather by CustomWeather, © 2016

Note: Actual official high and low records may vary slightly from our data, if they occured in-between our weather recording intervals... More about our weather records

Advertising

Vennesla Weather History for the Previous 24 Hours

Scroll right to see more
 ConditionsComfort  
Time TempWeatherWind HumidityBarometerVisibility
5:20 AM
Thu, Jun 30
55 °FLight rain. Fog.10 mph88%29.62 "Hg2 mi
4:50 AM54 °FLight rain. Overcast.9 mph94%29.62 "Hg5 mi
4:20 AM54 °FRain. Light fog.9 mph94%29.65 "Hg5 mi
3:20 AM55 °FPassing clouds.6 mph88%29.65 "HgN/A
2:50 AM55 °FLight rain. Partly cloudy.7 mph88%29.65 "HgN/A
2:20 AM55 °FPartly cloudy.6 mph88%29.68 "HgN/A
1:50 AM55 °FOvercast.6 mph94%29.68 "HgN/A
1:20 AM55 °FLight rain. Partly cloudy.2 mph88%29.68 "HgN/A
12:50 AM55 °FOvercast.3 mph94%29.68 "HgN/A
12:20 AM57 °FPartly cloudy.5 mph88%29.71 "HgN/A
11:50 PM
Wed, Jun 29
57 °FPassing clouds.5 mph88%29.71 "HgN/A
11:20 PM57 °FPartly sunny.6 mph88%29.71 "HgN/A
10:50 PM57 °FBroken clouds.3 mph88%29.71 "HgN/A
10:20 PM57 °FBroken clouds.2 mph88%29.71 "HgN/A
9:50 PM57 °FScattered clouds.3 mph88%29.71 "HgN/A
9:20 PM57 °FScattered clouds.6 mph88%29.71 "HgN/A
8:50 PM59 °FScattered clouds.6 mph88%29.71 "HgN/A
8:20 PM57 °FPartly sunny.3 mph94%29.71 "HgN/A
7:50 PM57 °FSprinkles. Broken clouds.3 mph94%29.71 "HgN/A
7:20 PM57 °FSprinkles. Partly sunny.5 mph88%29.71 "HgN/A
6:50 PM57 °FScattered showers. Partly sunny.7 mph88%29.71 "HgN/A
6:20 PM57 °FSprinkles. Partly sunny.7 mph88%29.71 "HgN/A
5:50 PM57 °FSprinkles. Broken clouds.12 mph88%29.74 "Hg6 mi
5:20 PM59 °FSprinkles. Broken clouds.8 mph88%29.71 "Hg6 mi
4:50 PM59 °FPartly sunny.12 mph77%29.74 "HgN/A
4:20 PM59 °FScattered showers. Partly sunny.12 mph72%29.74 "HgN/A
3:50 PM59 °FScattered showers. Partly sunny.8 mph77%29.74 "HgN/A
3:20 PM59 °FPartly sunny.8 mph72%29.74 "HgN/A
2:50 PM59 °FPartly sunny.12 mph72%29.74 "HgN/A
2:20 PM59 °FSprinkles. Broken clouds.12 mph88%29.77 "HgN/A
1:50 PM59 °FLight rain. Broken clouds.14 mph82%29.77 "HgN/A
1:20 PM61 °FLight rain. Partly sunny.12 mph77%29.77 "HgN/A
12:50 PM61 °FLight rain. Partly sunny.13 mph77%29.77 "HgN/A
12:20 PM61 °FLight rain. Partly sunny.12 mph72%29.77 "HgN/A
11:50 AM61 °FPartly sunny.12 mph72%29.77 "HgN/A
11:20 AM61 °FPartly sunny.9 mph72%29.77 "HgN/A
10:50 AM61 °FPartly sunny.9 mph72%29.80 "HgN/A
10:20 AM61 °FBroken clouds.8 mph72%29.80 "HgN/A
9:50 AM59 °FPartly sunny.9 mph82%29.80 "HgN/A
9:20 AM57 °FPartly sunny.9 mph88%29.80 "HgN/A
8:50 AM55 °FPartly sunny.9 mph88%29.80 "HgN/A
8:20 AM55 °FPartly sunny.9 mph88%29.80 "HgN/A
7:50 AM54 °FPartly sunny.8 mph94%29.83 "HgN/A
7:20 AM52 °FBroken clouds.8 mph94%29.83 "HgN/A
Weather by CustomWeather, © 2016

See weather overviewHow to use our weather pages